Regional Weather Roundup
Issued by NWS

Home | Current Version | Previous Version | Graphics & Text | Print | Product List | Glossary On
Versions: 1 2 3 4 5 6 7 8 9 10 11 12 13 14 15 16 17 18 19 20 21 22 23 24 25 26 27 28 29 30 31 32 33 34 35 36 37 38 39 40 41 42 43 44 45 46 47 48 49 50
000
ASUS45 KCYS 180310
RWRWY

WYOMING REGIONAL WEATHER ROUNDUP
NATIONAL WEATHER SERVICE CHEYENNE WY
800 PM MST WED DEC 17 2014

NOTE:  "FAIR" INDICATES FEW OR NO CLOUDS BELOW 12,000 FEET
WITH NO SIGNIFICANT WEATHER AND/OR OBSTRUCTIONS TO VISIBILITY.

WYZ001-180400-
YELLOWSTONE NATIONAL PARK

CITY           SKY/WX    TMP DP  RH WIND       PRES   REMARKS
LK YELLOWSTONE   N/A     19  16  88 CALM      29.98R
W YELLOWSTONE  NOT AVBL

$$
WYZ002>013-054>058-071-098>099-180400-
NORTHERN WYOMING

CITY           SKY/WX    TMP DP  RH WIND       PRES   REMARKS
JACKSON        CLOUDY    12  10  92 CALM      29.98R
CODY           FAIR      16  10  79 S6        29.90F WCI   7
GREYBULL       FAIR      14  12  92 CALM      29.97S
WORLAND        FAIR       6   4  91 S6        29.96R WCI  -4
SHERIDAN       FAIR      13   9  84 NW3       29.93F
BUFFALO        FAIR      25  19  78 SW7       29.94S WCI  17
GILLETTE       FAIR      19  14  81 CALM      29.94S
HULETT           N/A    N/A N/A N/A MISG        N/A
NEWCASTLE      FOG       14  14 100 CALM      29.98S VSB 1/2

$$
WYZ014>020-022>026-101>103-180400-
CENTRAL WYOMING

CITY           SKY/WX    TMP DP  RH WIND       PRES   REMARKS
BIG PINEY      FAIR      16  12  84 CALM      29.99R
PINEDALE       FAIR      10  10 100 W6        29.99R WCI   1
DUBOIS         CLOUDY    25  18  74 N13       29.92S WCI  13
LANDER         FOG        4   2  91 CALM      29.95F VSB 1/4
RIVERTON       FOG       17  13  84 CALM      29.97S VSB 1/4
CASPER         FAIR      22  16  78 W9        29.95R WCI  12
DOUGLAS        FAIR      21  16  81 CALM      29.96R

$$
WYZ021-027>030-104>119-180400-
SOUTHERN WYOMING

CITY           SKY/WX    TMP DP  RH WIND       PRES   REMARKS
EVANSTON       FAIR      27  19  72 SW5       29.99R WCI  22
KEMMERER       FAIR      23  19  86 N5        29.98S WCI  17
FORT BRIDGER   MOCLDY    29  22  75 W7        30.01S WCI  22
ROCK SPRINGS   FAIR      19  16  88 NE5       29.99R WCI  12
DIXON          FOG      N/A N/A N/A CALM      30.04R VSB 1/4
RAWLINS        FAIR      19  13  77 W3        29.97S
SARATOGA       FAIR      14  10  85 SE6       29.99R WCI   5
LARAMIE        FAIR      15  11  83 SE7       29.95R WCI   5
CHEYENNE       MOCLDY    27  16  63 W10       29.94S WCI  17
TORRINGTON     FOG       16  15  96 SE5       29.98R VSB 1/4 WCI   9
PINE BLUFFS    FAIR      25  23  93 SW3       29.96S

$$


USA.gov is the U.S. government's official web portal to all federal, state and local government web resources and services.